This demonstration page uses our WeatherBlox Daily Observations layout. Learn more.

39.92423, -83.80882

Hourly Observations for May 26, 2019

Temp ( °F °C ) Dew Point ( °F °C ) Humidity (%) Winds ( mph kmh ) Pressure ( in mb ) Visibility ( mi km ) Precip ( " mm )
12:56 am 00:56 Clear 69 20.6 67 19.4 93 93 SSW 7 11 30.03 1017 10 16.0934 0 0
1:56 am 01:56 Clear 69 20.6 67 19.4 93 93 SSW 6 9 30.02 1017 10 16.0934 0 0
2:56 am 02:56 Clear 68 20 67 19.4 96 96 SSW 8 13 30.02 1017 10 16.0934 0 0
3:56 am 03:56 Clear 67 19.4 67 19.4 100 100 SSW 5 7 30.01 1016 10 16.0934 0 0
4:56 am 04:56 Clear 67 19.4 67 19.4 100 100 SSW 7 11 30.01 1016 9 14.48406 0 0
5:56 am 05:56 Clear 68 20 68 20 100 100 SSW 8 13 30.02 1017 9 14.48406 0 0
6:56 am 06:56 Mostly Cloudy with Nearby Thunderstorms 68 20 68 20 100 100 W 8 13 30.06 1018 9 14.48406 0 0.0254
7:12 am 07:12 Cloudy with Heavy Thunderstorms 66 19 64 18 94 94 NNW 17 28 30.08 1018 2.5 4.02335 0.06 1.524
7:19 am 07:19 Cloudy with Light Thunderstorms 64 18 64 18 100 100 WNW 9 15 30.08 1019 8 12.87472 0.09 2.286
7:34 am 07:34 Cloudy with Light Rain 64 18 64 18 100 100 NNW 6 9 30.08 1019 10 16.0934 0.14 3.556
7:56 am 07:56 Cloudy 65 18.3 64 17.8 97 97 NNW 6 9 30.09 1019 10 16.0934 0.2 5.08
8:56 am 08:56 Partly Cloudy 67 19.4 65 18.3 93 93 SE 3 6 30.09 1019 10 16.0934 0.06 1.524
9:56 am 09:56 Sunny 70 21.1 65 18.3 84 84 SSE 5 7 30.07 1018 10 16.0934 0 0
10:56 am 10:56 Sunny 74 23.3 67 19.4 79 79 Calm 30.07 1018 10 16.0934 0 0
11:56 am 11:56 Sunny 76 24.4 68 20 77 77 SSW 7 11 30.06 1018 10 16.0934 0 0
12:56 pm 12:56 Sunny 78 25.6 67 19.4 69 69 SW 8 13 30.05 1018 10 16.0934 0 0
1:56 pm 13:56 Sunny 81 27.2 69 20.6 67 67 W 8 13 30.03 1017 10 16.0934 0 0
2:56 pm 14:56 Sunny 81 27.2 66 18.9 61 61 Calm 30.01 1016 10 16.0934 0 0
3:56 pm 15:56 Sunny 82 27.8 65 18.3 56 56 NW 9 15 29.99 1016 10 16.0934 0 0
4:56 pm 16:56 Sunny 81 27.2 68 20 65 65 N 13 20 29.98 1015 10 16.0934 0 0
5:56 pm 17:56 Sunny 80 26.7 68 20 67 67 NW 12 19 29.98 1015 10 16.0934 0 0
6:56 pm 18:56 Sunny 78 25.6 65 18.3 64 64 NNW 12 19 29.99 1016 10 16.0934 0 0
7:56 pm 19:56 Mostly Cloudy 75 23.9 64 17.8 69 69 NNW 8 13 30 1016 10 16.0934 0 0
8:56 pm 20:56 Cloudy 72 22.2 64 17.8 76 76 NNW 7 11 30.01 1016 10 16.0934 0 0
9:56 pm 21:56 Mostly Cloudy 70 21.1 65 18.3 84 84 NW 6 9 30.03 1017 10 16.0934 0 0
10:56 pm 22:56 Clear 68 20 65 18.3 90 90 NNW 5 7 30.03 1017 10 16.0934 0 0
11:56 pm 23:56 Mostly Cloudy 67 19.4 65 18.3 93 93 WNW 5 7 30.05 1018 10 16.0934 0 0

Powered by AerisWeather